Year,Month,Day,Hour,Minute,Value (Times are PST for temperature in C)
2016,10,16,00,01,11.60
2016,10,16,00,02,11.60
2016,10,16,00,03,11.70
2016,10,16,00,04,11.70
2016,10,16,00,06,11.70
2016,10,16,00,07,11.70
2016,10,16,00,09,11.70
2016,10,16,00,11,11.60
2016,10,16,00,12,11.60
2016,10,16,00,13,11.60
2016,10,16,00,14,11.60
2016,10,16,00,16,11.60
2016,10,16,00,17,11.60
2016,10,16,00,18,11.60
2016,10,16,00,19,11.60
2016,10,16,00,21,11.60
2016,10,16,00,22,11.60
2016,10,16,00,23,11.60
2016,10,16,00,24,11.60
2016,10,16,00,25,11.40
2016,10,16,00,26,11.40
2016,10,16,00,27,11.40
2016,10,16,00,28,11.40
2016,10,16,00,29,11.40
2016,10,16,00,30,11.40
2016,10,16,00,31,11.40
2016,10,16,00,32,11.40
2016,10,16,00,33,11.40
2016,10,16,00,34,11.30
2016,10,16,00,36,11.30
2016,10,16,00,37,11.30
2016,10,16,00,38,11.30
2016,10,16,00,39,11.30
2016,10,16,00,40,11.30
2016,10,16,00,41,11.20
2016,10,16,00,42,11.20
2016,10,16,00,43,11.20
2016,10,16,00,44,11.20
2016,10,16,00,45,11.10
2016,10,16,00,46,11.10
2016,10,16,00,47,11.10
2016,10,16,00,48,11.10
2016,10,16,00,49,11.10
2016,10,16,00,50,11.10
2016,10,16,00,51,11.10
2016,10,16,00,52,11.10
2016,10,16,00,53,11.10
2016,10,16,00,54,11.10
2016,10,16,00,55,10.90
2016,10,16,00,56,10.90
2016,10,16,00,57,10.90
2016,10,16,00,58,10.90
2016,10,16,00,59,10.80
2016,10,16,01,00,10.80
2016,10,16,01,01,10.80
2016,10,16,01,02,10.80
2016,10,16,01,03,10.70
2016,10,16,01,04,10.70
2016,10,16,01,05,10.70
2016,10,16,01,06,10.60
2016,10,16,01,07,10.60
2016,10,16,01,08,10.60
2016,10,16,01,09,10.60
2016,10,16,01,10,10.60
2016,10,16,01,11,10.60
2016,10,16,01,12,10.70
2016,10,16,01,13,10.70
2016,10,16,01,14,10.80
2016,10,16,01,15,10.80
2016,10,16,01,16,10.80
2016,10,16,01,17,10.70
2016,10,16,01,18,10.70
2016,10,16,01,19,10.60
2016,10,16,01,20,10.60
2016,10,16,01,21,10.60
2016,10,16,01,22,10.60
2016,10,16,01,23,10.60
2016,10,16,01,24,10.60
2016,10,16,01,25,10.60
2016,10,16,01,26,10.60
2016,10,16,01,27,10.60
2016,10,16,01,28,10.60
2016,10,16,01,29,10.40
2016,10,16,01,30,10.40
2016,10,16,01,31,10.40
2016,10,16,01,32,10.40
2016,10,16,01,33,10.30
2016,10,16,01,34,10.30
2016,10,16,01,35,10.30
2016,10,16,01,36,10.30
2016,10,16,01,37,10.30
2016,10,16,01,38,10.30
2016,10,16,01,39,10.30
2016,10,16,01,40,10.30
2016,10,16,01,41,10.20
2016,10,16,01,42,10.20
2016,10,16,01,43,10.10
2016,10,16,01,44,10.10
2016,10,16,01,45,10.10
2016,10,16,01,47,10.10
2016,10,16,01,48,10.10
2016,10,16,01,49,10.10
2016,10,16,01,51,10.20
2016,10,16,01,52,10.30
2016,10,16,01,53,10.30
2016,10,16,01,54,10.40
2016,10,16,01,56,10.40
2016,10,16,01,57,10.40
2016,10,16,01,58,10.40
2016,10,16,01,59,10.40
2016,10,16,02,01,10.30
2016,10,16,02,02,10.40
2016,10,16,02,03,10.40
2016,10,16,02,04,10.40
2016,10,16,02,06,10.40
2016,10,16,02,07,10.40
2016,10,16,02,08,10.40
2016,10,16,02,09,10.40
2016,10,16,02,11,10.40
2016,10,16,02,12,10.40
2016,10,16,02,13,10.40
2016,10,16,02,14,10.40
2016,10,16,02,16,10.40
2016,10,16,02,17,10.40
2016,10,16,02,18,10.40
2016,10,16,02,19,10.40
2016,10,16,02,21,10.30
2016,10,16,02,22,10.30
2016,10,16,02,23,10.30
2016,10,16,02,24,10.30
2016,10,16,02,26,10.30
2016,10,16,02,27,10.30
2016,10,16,02,28,10.30
2016,10,16,02,29,10.30
2016,10,16,02,31,10.30
2016,10,16,02,32,10.30
2016,10,16,02,33,10.30
2016,10,16,02,34,10.30
2016,10,16,02,36,10.30
2016,10,16,02,37,10.30
2016,10,16,02,38,10.30
2016,10,16,02,39,10.30
2016,10,16,02,41,10.20
2016,10,16,02,42,10.20
2016,10,16,02,43,10.20
2016,10,16,02,44,10.20
2016,10,16,02,46,10.20
2016,10,16,02,47,10.20
2016,10,16,02,48,10.20
2016,10,16,02,49,10.10
2016,10,16,02,51,10.10
2016,10,16,02,52,10.10
2016,10,16,02,53,10.10
2016,10,16,02,54,10.10
2016,10,16,02,55,10.20
2016,10,16,02,56,10.20
2016,10,16,02,57,10.20
2016,10,16,02,58,10.20
2016,10,16,02,59,10.20
2016,10,16,03,00,10.20
2016,10,16,03,01,10.20
2016,10,16,03,02,10.20
2016,10,16,03,03,10.20
2016,10,16,03,04,10.20
2016,10,16,03,06,10.20
2016,10,16,03,07,10.20
2016,10,16,03,08,10.10
2016,10,16,03,09,10.10
2016,10,16,03,10,10.10
2016,10,16,03,11,10.10
2016,10,16,03,12,10.10
2016,10,16,03,13,10.10
2016,10,16,03,14,10.10
2016,10,16,03,15,10.10
2016,10,16,03,16,10.10
2016,10,16,03,17,10.10
2016,10,16,03,18,10.10
2016,10,16,03,19,9.90
2016,10,16,03,20,9.90
2016,10,16,03,21,9.90
2016,10,16,03,22,9.80
2016,10,16,03,23,9.80
2016,10,16,03,24,9.70
2016,10,16,03,26,9.70
2016,10,16,03,27,9.70
2016,10,16,03,28,9.70
2016,10,16,03,29,9.70
2016,10,16,03,30,9.70
2016,10,16,03,31,9.70
2016,10,16,03,32,9.70
2016,10,16,03,33,9.60
2016,10,16,03,34,9.60
2016,10,16,03,35,9.60
2016,10,16,03,36,9.50
2016,10,16,03,37,9.50
2016,10,16,03,38,9.50
2016,10,16,03,39,9.50
2016,10,16,03,40,9.50
2016,10,16,03,41,9.40
2016,10,16,03,42,9.40
2016,10,16,03,43,9.40
2016,10,16,03,44,9.40
2016,10,16,03,45,9.40
2016,10,16,03,46,9.40
2016,10,16,03,47,9.40
2016,10,16,03,48,9.40
2016,10,16,03,49,9.50
2016,10,16,03,50,9.50
2016,10,16,03,51,9.50
2016,10,16,03,52,9.60
2016,10,16,03,53,9.60
2016,10,16,03,54,9.60
2016,10,16,03,55,9.70
2016,10,16,03,56,9.70
2016,10,16,03,57,9.70
2016,10,16,03,58,9.70
2016,10,16,03,59,9.70
2016,10,16,04,00,9.70
2016,10,16,04,01,9.70
2016,10,16,04,02,9.70
2016,10,16,04,03,9.70
2016,10,16,04,04,9.80
2016,10,16,04,05,9.80
2016,10,16,04,06,9.80
2016,10,16,04,07,9.80
2016,10,16,04,08,9.90
2016,10,16,04,09,9.90
2016,10,16,04,10,9.90
2016,10,16,04,11,9.90
2016,10,16,04,12,9.90
2016,10,16,04,13,9.90
2016,10,16,04,14,9.90
2016,10,16,04,15,9.90
2016,10,16,04,16,9.90
2016,10,16,04,17,9.90
2016,10,16,04,18,9.90
2016,10,16,04,19,10.10
2016,10,16,04,21,10.30
2016,10,16,04,23,10.40
2016,10,16,04,24,10.60
2016,10,16,04,26,10.60
2016,10,16,04,27,10.70
2016,10,16,04,28,10.80
2016,10,16,04,29,10.80
2016,10,16,04,31,10.90
2016,10,16,04,32,10.90
2016,10,16,04,33,10.90
2016,10,16,04,34,10.90
2016,10,16,04,36,10.90
2016,10,16,04,37,10.90
2016,10,16,04,38,10.90
2016,10,16,04,39,10.90
2016,10,16,04,41,10.90
2016,10,16,04,42,10.90
2016,10,16,04,43,10.90
2016,10,16,04,44,10.90
2016,10,16,04,46,11.10
2016,10,16,04,47,11.10
2016,10,16,04,48,11.10
2016,10,16,04,49,11.10
2016,10,16,04,51,11.10
2016,10,16,04,52,11.10
2016,10,16,04,53,11.10
2016,10,16,04,54,11.10
2016,10,16,04,56,11.10
2016,10,16,04,57,11.10
2016,10,16,04,58,11.10
2016,10,16,04,59,11.10
2016,10,16,05,01,11.10
2016,10,16,05,02,11.10
2016,10,16,05,03,11.10
2016,10,16,05,04,11.10
2016,10,16,05,06,11.10
2016,10,16,05,07,11.10
2016,10,16,05,08,11.10
2016,10,16,05,09,11.10
2016,10,16,05,11,11.10
2016,10,16,05,12,11.10
2016,10,16,05,13,11.10
2016,10,16,05,14,11.10
2016,10,16,05,16,11.10
2016,10,16,05,17,11.10
2016,10,16,05,18,11.10
2016,10,16,05,19,11.10
2016,10,16,05,21,11.10
2016,10,16,05,22,11.10
2016,10,16,05,23,11.10
2016,10,16,05,24,11.10
2016,10,16,05,26,11.10
2016,10,16,05,27,11.10
2016,10,16,05,28,11.10
2016,10,16,05,29,11.10
2016,10,16,05,31,11.10
2016,10,16,05,32,11.10
2016,10,16,05,33,11.10
2016,10,16,05,34,11.10
2016,10,16,05,36,11.10
2016,10,16,05,37,11.10
2016,10,16,05,38,11.10
2016,10,16,05,39,11.10
2016,10,16,05,40,11.10
2016,10,16,05,41,11.10
2016,10,16,05,42,11.10
2016,10,16,05,43,11.10
2016,10,16,05,44,11.10
2016,10,16,05,45,11.10
2016,10,16,05,46,11.10
2016,10,16,05,47,11.10
2016,10,16,05,48,11.10
2016,10,16,05,49,11.10
2016,10,16,05,50,11.10
2016,10,16,05,51,11.10
2016,10,16,05,52,11.10
2016,10,16,05,53,11.10
2016,10,16,05,54,11.10
2016,10,16,05,55,11.10
2016,10,16,05,56,11.10
2016,10,16,05,57,11.10
2016,10,16,05,58,11.10
2016,10,16,05,59,11.10
2016,10,16,06,00,11.10
2016,10,16,06,01,11.10
2016,10,16,06,02,11.10
2016,10,16,06,03,11.10
2016,10,16,06,29,10.60
2016,10,16,06,30,10.60
2016,10,16,06,31,10.60
2016,10,16,06,32,10.60
2016,10,16,06,33,10.60
2016,10,16,06,34,10.60
2016,10,16,06,35,10.60
2016,10,16,06,36,10.60
2016,10,16,06,37,10.60
2016,10,16,06,38,10.60
2016,10,16,06,39,10.40
2016,10,16,06,40,10.40
2016,10,16,06,41,10.40
2016,10,16,06,42,10.40
2016,10,16,06,43,10.40
2016,10,16,06,44,10.40
2016,10,16,06,45,10.40
2016,10,16,06,46,10.40
2016,10,16,06,47,10.30
2016,10,16,06,48,10.30
2016,10,16,06,49,10.30
2016,10,16,06,50,10.30
2016,10,16,06,51,10.30
2016,10,16,06,52,10.30
2016,10,16,06,53,10.30
2016,10,16,06,54,10.30
2016,10,16,06,55,10.40
2016,10,16,06,56,10.40
2016,10,16,06,57,10.60
2016,10,16,06,58,10.60
2016,10,16,06,59,10.70
2016,10,16,07,00,10.70
2016,10,16,07,01,10.80
2016,10,16,07,02,10.80
2016,10,16,07,03,10.90
2016,10,16,07,04,10.90
2016,10,16,07,05,10.90
2016,10,16,07,06,10.90
2016,10,16,07,07,10.90
2016,10,16,07,08,10.90
2016,10,16,07,09,10.90
2016,10,16,07,10,10.90
2016,10,16,07,11,10.90
2016,10,16,07,12,10.90
2016,10,16,07,13,10.90
2016,10,16,07,14,10.90
2016,10,16,07,15,10.90
2016,10,16,07,16,10.90
2016,10,16,07,17,10.90
2016,10,16,07,18,10.90
2016,10,16,07,19,10.90
2016,10,16,07,20,10.90
2016,10,16,07,21,10.90
2016,10,16,07,23,10.90
2016,10,16,07,24,10.90
2016,10,16,07,26,10.90
2016,10,16,07,27,10.90
2016,10,16,07,28,10.90
2016,10,16,07,29,10.90
2016,10,16,07,31,10.90
2016,10,16,07,32,10.90
2016,10,16,07,33,10.90
2016,10,16,07,34,10.90
2016,10,16,08,29,11.30
2016,10,16,08,30,11.30
2016,10,16,08,31,11.30
2016,10,16,08,32,11.30
2016,10,16,08,33,11.30
2016,10,16,08,34,11.30
2016,10,16,08,35,11.30
2016,10,16,08,37,11.30
2016,10,16,08,38,11.30
2016,10,16,08,39,11.20
2016,10,16,08,40,11.20
2016,10,16,08,41,11.20
2016,10,16,08,42,11.20
2016,10,16,08,43,11.20
2016,10,16,08,44,11.20
2016,10,16,08,45,11.20
2016,10,16,08,46,11.20
2016,10,16,08,47,11.20
2016,10,16,08,48,11.20
2016,10,16,08,49,11.20
2016,10,16,08,50,11.20
2016,10,16,08,51,11.20
2016,10,16,08,52,11.20
2016,10,16,08,53,11.30
2016,10,16,08,54,11.30
2016,10,16,08,55,11.30
2016,10,16,08,56,11.30
2016,10,16,08,57,11.30
2016,10,16,08,58,11.30
2016,10,16,08,59,11.30
2016,10,16,09,00,11.30
2016,10,16,09,01,11.30
2016,10,16,09,02,11.30
2016,10,16,09,03,11.30
2016,10,16,09,04,11.30
2016,10,16,09,05,11.30
2016,10,16,09,06,11.30
2016,10,16,09,07,11.30
2016,10,16,09,08,11.30
2016,10,16,09,09,11.30
2016,10,16,09,10,11.30
2016,10,16,09,11,11.30
2016,10,16,09,12,11.30
2016,10,16,09,13,11.30
2016,10,16,09,14,11.30
2016,10,16,09,15,11.30
2016,10,16,09,16,11.30
2016,10,16,09,17,11.30
2016,10,16,09,18,11.30
2016,10,16,09,19,11.30
2016,10,16,09,20,11.30
2016,10,16,09,21,11.30
2016,10,16,09,23,11.30
2016,10,16,09,24,11.30
2016,10,16,09,26,11.30
2016,10,16,09,27,11.30
2016,10,16,09,28,11.30
2016,10,16,09,29,11.30
2016,10,16,09,31,11.30
2016,10,16,09,32,11.30
2016,10,16,09,33,11.30
2016,10,16,09,34,11.30
2016,10,16,09,36,11.30
2016,10,16,09,37,11.30
2016,10,16,09,38,11.30
2016,10,16,09,39,11.30
2016,10,16,09,41,11.30
2016,10,16,09,42,11.30
2016,10,16,09,43,11.30
2016,10,16,09,44,11.30
2016,10,16,09,46,11.30
2016,10,16,09,47,11.30
2016,10,16,09,48,11.20
2016,10,16,09,49,11.30
2016,10,16,09,51,11.30
2016,10,16,09,52,11.30
2016,10,16,09,53,11.30
2016,10,16,09,54,11.30
2016,10,16,09,56,11.30
2016,10,16,09,57,11.30
2016,10,16,09,58,11.30
2016,10,16,09,59,11.30
2016,10,16,10,01,11.30
2016,10,16,10,02,11.30
2016,10,16,10,03,11.30
2016,10,16,10,04,11.30
2016,10,16,10,06,11.30
2016,10,16,10,07,11.30
2016,10,16,10,08,11.30
2016,10,16,10,09,11.30
2016,10,16,10,11,11.30
2016,10,16,10,12,11.30
2016,10,16,10,13,11.30
2016,10,16,10,14,11.20
2016,10,16,10,16,11.20
2016,10,16,10,17,11.20
2016,10,16,10,18,11.20
2016,10,16,10,19,11.20
2016,10,16,10,21,11.20
2016,10,16,10,22,11.20
2016,10,16,10,23,11.30
2016,10,16,10,24,11.30
2016,10,16,10,26,11.30
2016,10,16,10,27,11.40
2016,10,16,10,28,11.40
2016,10,16,10,29,11.40
2016,10,16,10,31,11.40
2016,10,16,10,32,11.40
2016,10,16,10,33,11.40
2016,10,16,10,34,11.40
2016,10,16,10,36,11.60
2016,10,16,10,37,11.60
2016,10,16,10,38,11.60
2016,10,16,10,39,11.60
2016,10,16,10,41,11.70
2016,10,16,10,42,11.70
2016,10,16,10,43,11.70
2016,10,16,10,44,11.80
2016,10,16,10,45,11.80
2016,10,16,10,46,11.80
2016,10,16,10,47,11.80
2016,10,16,10,48,11.80
2016,10,16,10,49,11.80
2016,10,16,10,50,11.80
2016,10,16,10,51,11.80
2016,10,16,10,52,11.80
2016,10,16,10,53,11.90
2016,10,16,10,54,11.90
2016,10,16,10,55,11.90
2016,10,16,10,56,11.90
2016,10,16,10,57,11.90
2016,10,16,10,58,11.90
2016,10,16,10,59,11.90
2016,10,16,11,00,11.90
2016,10,16,11,01,11.90
2016,10,16,11,02,11.80
2016,10,16,11,03,11.80
2016,10,16,11,04,11.80
2016,10,16,11,06,11.90
2016,10,16,11,07,11.90
2016,10,16,11,08,11.90
2016,10,16,11,09,11.90
2016,10,16,11,10,11.90
2016,10,16,11,11,11.90
2016,10,16,11,12,11.90
2016,10,16,11,13,11.90
2016,10,16,11,14,11.90
2016,10,16,11,15,11.80
2016,10,16,11,16,11.80
2016,10,16,11,17,11.80
2016,10,16,11,18,11.70
2016,10,16,11,19,11.70
2016,10,16,11,20,11.60
2016,10,16,11,21,11.60
2016,10,16,11,22,11.60
2016,10,16,11,23,11.60
2016,10,16,11,24,11.60
2016,10,16,11,25,11.60
2016,10,16,11,26,11.60
2016,10,16,11,27,11.60
2016,10,16,11,28,11.60
2016,10,16,11,29,11.60
2016,10,16,11,30,11.60
2016,10,16,11,31,11.60
2016,10,16,11,32,11.70
2016,10,16,11,33,11.70
2016,10,16,11,34,11.70
2016,10,16,11,35,11.70
2016,10,16,11,36,11.70
2016,10,16,11,37,11.80
2016,10,16,11,38,11.80
2016,10,16,11,39,11.80
2016,10,16,11,40,11.80
2016,10,16,11,41,11.80
2016,10,16,11,42,11.80
2016,10,16,11,43,11.80
2016,10,16,11,44,11.90
2016,10,16,11,45,11.90
2016,10,16,11,46,11.90
2016,10,16,11,47,11.90
2016,10,16,11,48,11.90
2016,10,16,11,49,12.00
2016,10,16,11,50,12.00
2016,10,16,11,51,12.00
2016,10,16,11,52,12.00
2016,10,16,11,53,12.00
2016,10,16,11,54,12.00
2016,10,16,11,55,12.00
2016,10,16,11,56,12.00
2016,10,16,11,57,12.00
2016,10,16,11,58,12.00
2016,10,16,11,59,11.90
2016,10,16,12,00,11.90
2016,10,16,12,01,11.90
2016,10,16,12,02,11.80
2016,10,16,12,04,11.80
2016,10,16,12,06,11.80
2016,10,16,12,07,11.80
2016,10,16,12,08,11.80
2016,10,16,12,11,11.80
2016,10,16,12,12,11.80
2016,10,16,12,13,11.90
2016,10,16,12,14,11.90
2016,10,16,12,16,11.80
2016,10,16,12,17,11.80
2016,10,16,12,18,11.80
2016,10,16,12,19,11.90
2016,10,16,12,21,11.90
2016,10,16,12,22,11.90
2016,10,16,12,23,11.90
2016,10,16,12,24,11.90
2016,10,16,12,26,12.00
2016,10,16,12,27,12.00
2016,10,16,12,28,12.00
2016,10,16,12,29,12.10
2016,10,16,12,31,12.10
2016,10,16,12,32,12.00
2016,10,16,12,33,12.00
2016,10,16,12,34,12.00
2016,10,16,12,36,12.00
2016,10,16,12,37,12.00
2016,10,16,12,38,12.00
2016,10,16,12,39,12.10
2016,10,16,12,41,12.10
2016,10,16,12,42,12.20
2016,10,16,12,43,12.20
2016,10,16,12,44,12.20
2016,10,16,12,46,12.30
2016,10,16,12,47,12.30
2016,10,16,12,48,12.30
2016,10,16,12,49,12.30
2016,10,16,12,51,12.40
2016,10,16,12,52,12.50
2016,10,16,12,53,12.50
2016,10,16,12,54,12.50
2016,10,16,12,56,12.60
2016,10,16,12,57,12.70
2016,10,16,12,58,12.80
2016,10,16,12,59,12.80
2016,10,16,13,01,12.80
2016,10,16,13,02,12.80
2016,10,16,13,03,12.80
2016,10,16,13,04,12.80
2016,10,16,13,06,12.80
2016,10,16,13,07,12.80
2016,10,16,13,08,12.80
2016,10,16,13,09,12.80
2016,10,16,13,11,12.70
2016,10,16,13,12,12.70
2016,10,16,13,13,12.60
2016,10,16,13,14,12.60
2016,10,16,13,16,12.50
2016,10,16,13,17,12.50
2016,10,16,13,18,12.40
2016,10,16,13,19,12.40
2016,10,16,13,21,12.30
2016,10,16,13,22,12.30
2016,10,16,13,23,12.30
2016,10,16,13,24,12.30
2016,10,16,13,25,12.40
2016,10,16,13,26,12.40
2016,10,16,13,27,12.40
2016,10,16,13,28,12.40
2016,10,16,13,29,12.50
2016,10,16,13,30,12.50
2016,10,16,13,31,12.50
2016,10,16,13,32,12.50
2016,10,16,13,33,12.60
2016,10,16,13,34,12.60
2016,10,16,13,36,12.70
2016,10,16,13,37,12.80
2016,10,16,13,38,12.80
2016,10,16,13,39,12.80
2016,10,16,13,41,12.90
2016,10,16,13,42,13.00
2016,10,16,13,43,13.00
2016,10,16,13,44,13.10
2016,10,16,13,45,13.10
2016,10,16,13,46,13.20
2016,10,16,13,47,13.20
2016,10,16,13,48,13.20
2016,10,16,13,49,13.30
2016,10,16,13,50,13.30
2016,10,16,13,51,13.30
2016,10,16,13,52,13.30
2016,10,16,13,53,13.30
2016,10,16,13,54,13.30
2016,10,16,13,55,13.30
2016,10,16,13,56,13.30
2016,10,16,13,57,13.30
2016,10,16,13,58,13.30
2016,10,16,13,59,13.30
2016,10,16,14,00,13.30
2016,10,16,14,01,13.30
2016,10,16,14,02,13.30
2016,10,16,14,03,13.30
2016,10,16,14,04,13.30
2016,10,16,14,05,13.20
2016,10,16,14,06,13.10
2016,10,16,14,07,13.10
2016,10,16,14,08,13.10
2016,10,16,14,09,13.00
2016,10,16,14,10,13.00
2016,10,16,14,11,13.00
2016,10,16,14,12,13.00
2016,10,16,14,13,13.00
2016,10,16,14,14,13.00
2016,10,16,14,15,13.00
2016,10,16,14,16,13.00
2016,10,16,14,17,13.00
2016,10,16,14,18,13.00
2016,10,16,14,19,13.00
2016,10,16,14,20,13.00
2016,10,16,14,21,13.00
2016,10,16,14,22,13.00
2016,10,16,14,23,13.00
2016,10,16,14,24,13.00
2016,10,16,14,25,13.00
2016,10,16,14,26,13.00
2016,10,16,14,27,13.00
2016,10,16,14,28,13.00
2016,10,16,14,29,13.00
2016,10,16,14,30,13.00
2016,10,16,14,31,13.00
2016,10,16,14,32,13.00
2016,10,16,14,33,13.10
2016,10,16,14,34,13.10
2016,10,16,14,35,13.20
2016,10,16,14,36,13.20
2016,10,16,14,37,13.30
2016,10,16,14,38,13.30
2016,10,16,14,39,13.30
2016,10,16,14,40,13.40
2016,10,16,14,41,13.40
2016,10,16,14,42,13.40
2016,10,16,14,43,13.40
2016,10,16,14,44,13.40
2016,10,16,14,45,13.40
2016,10,16,14,46,13.50
2016,10,16,14,47,13.50
2016,10,16,14,49,13.50
2016,10,16,14,51,13.50
2016,10,16,14,52,13.60
2016,10,16,14,53,13.60
2016,10,16,14,54,13.60
2016,10,16,14,56,13.60
2016,10,16,14,57,13.60
2016,10,16,14,58,13.60
2016,10,16,14,59,13.60
2016,10,16,15,01,13.70
2016,10,16,15,02,13.70
2016,10,16,15,03,13.70
2016,10,16,15,04,13.70
2016,10,16,15,06,13.70
2016,10,16,15,07,13.60
2016,10,16,15,08,13.50
2016,10,16,15,09,13.50
2016,10,16,15,11,13.30
2016,10,16,15,12,13.30
2016,10,16,15,13,13.30
2016,10,16,15,14,13.20
2016,10,16,15,16,13.10
2016,10,16,15,17,13.10
2016,10,16,15,18,13.10
2016,10,16,15,19,13.10
2016,10,16,15,21,13.00
2016,10,16,15,22,13.00
2016,10,16,15,23,13.00
2016,10,16,15,24,13.00
2016,10,16,15,26,13.00
2016,10,16,15,27,13.00
2016,10,16,15,28,13.00
2016,10,16,15,29,13.00
2016,10,16,15,31,12.90
2016,10,16,15,32,12.90
2016,10,16,15,33,12.80
2016,10,16,15,34,12.80
2016,10,16,15,36,12.80
2016,10,16,15,37,12.80
2016,10,16,15,38,12.70
2016,10,16,15,39,12.70
2016,10,16,15,41,12.60
2016,10,16,15,42,12.60
2016,10,16,15,43,12.50
2016,10,16,15,44,12.50
2016,10,16,15,46,12.50
2016,10,16,15,47,12.50
2016,10,16,15,48,12.50
2016,10,16,15,49,12.50
2016,10,16,15,51,12.60
2016,10,16,15,52,12.60
2016,10,16,15,53,12.60
2016,10,16,15,54,12.60
2016,10,16,15,56,12.60
2016,10,16,15,57,12.70
2016,10,16,15,58,12.70
2016,10,16,15,59,12.70
2016,10,16,16,01,12.70
2016,10,16,16,02,12.70
2016,10,16,16,03,12.70
2016,10,16,16,04,12.70
2016,10,16,16,06,12.70
2016,10,16,16,07,12.60
2016,10,16,16,08,12.60
2016,10,16,16,09,12.60
2016,10,16,16,10,12.60
2016,10,16,16,11,12.60
2016,10,16,16,12,12.60
2016,10,16,16,13,12.60
2016,10,16,16,14,12.50
2016,10,16,16,15,12.50
2016,10,16,16,16,12.50
2016,10,16,16,17,12.50
2016,10,16,16,18,12.50
2016,10,16,16,19,12.50
2016,10,16,16,20,12.50
2016,10,16,16,21,12.50
2016,10,16,16,22,12.50
2016,10,16,16,23,12.50
2016,10,16,16,24,12.50
2016,10,16,16,25,12.50
2016,10,16,16,26,12.50
2016,10,16,16,27,12.50
2016,10,16,16,28,12.50
2016,10,16,16,29,12.50
2016,10,16,16,30,12.40
2016,10,16,16,31,12.40
2016,10,16,16,32,12.40
2016,10,16,16,33,12.40
2016,10,16,16,34,12.40
2016,10,16,16,35,12.40
2016,10,16,16,36,12.40
2016,10,16,16,37,12.40
2016,10,16,16,38,12.40
2016,10,16,16,39,12.40
2016,10,16,16,40,12.50
2016,10,16,16,41,12.40
2016,10,16,16,42,12.30
2016,10,16,16,43,12.30
2016,10,16,16,44,12.30
2016,10,16,16,45,12.20
2016,10,16,16,46,12.20
2016,10,16,16,47,12.10
2016,10,16,16,48,12.10
2016,10,16,16,49,12.00
2016,10,16,16,50,12.00
2016,10,16,16,51,11.90
2016,10,16,16,52,11.90
2016,10,16,16,53,11.90
2016,10,16,16,54,11.90
2016,10,16,16,55,11.80
2016,10,16,16,56,11.80
2016,10,16,16,57,11.80
2016,10,16,16,58,11.80
2016,10,16,16,59,11.80
2016,10,16,17,00,11.80
2016,10,16,17,01,11.80
2016,10,16,17,02,11.80
2016,10,16,17,03,11.80
2016,10,16,17,04,11.80
2016,10,16,17,05,11.70
2016,10,16,17,06,11.70
2016,10,16,17,07,11.70
2016,10,16,17,08,11.70
2016,10,16,17,09,11.70
2016,10,16,17,10,11.70
2016,10,16,17,11,11.60
2016,10,16,17,12,11.60
2016,10,16,17,13,11.60
2016,10,16,17,14,11.60
2016,10,16,17,15,11.60
2016,10,16,17,16,11.60
2016,10,16,17,17,11.60
2016,10,16,17,18,11.60
2016,10,16,17,19,11.60
2016,10,16,17,20,11.60
2016,10,16,17,21,11.40
2016,10,16,17,22,11.40
2016,10,16,17,23,11.40
2016,10,16,17,24,11.40
2016,10,16,17,25,11.40
2016,10,16,17,26,11.40
2016,10,16,17,27,11.40
2016,10,16,17,28,11.40
2016,10,16,17,29,11.40
2016,10,16,17,31,11.30
2016,10,16,17,32,11.30
2016,10,16,17,33,11.30
2016,10,16,17,34,11.30
2016,10,16,17,36,11.30
2016,10,16,17,37,11.30
2016,10,16,17,38,11.20
2016,10,16,17,39,11.20
2016,10,16,17,41,11.20
2016,10,16,17,42,11.20
2016,10,16,17,43,11.20
2016,10,16,17,44,11.20
2016,10,16,17,46,11.20
2016,10,16,17,47,11.30
2016,10,16,17,48,11.30
2016,10,16,17,49,11.30
2016,10,16,17,51,11.30
2016,10,16,17,52,11.30
2016,10,16,17,53,11.30
2016,10,16,17,54,11.30
2016,10,16,17,56,11.30
2016,10,16,17,57,11.30
2016,10,16,17,58,11.30
2016,10,16,17,59,11.20
2016,10,16,18,01,11.20
2016,10,16,18,02,11.20
2016,10,16,18,03,11.20
2016,10,16,18,04,11.20
2016,10,16,18,06,11.20
2016,10,16,18,07,11.20
2016,10,16,18,08,11.20
2016,10,16,18,09,11.20
2016,10,16,18,11,11.20
2016,10,16,18,12,11.10
2016,10,16,18,13,11.10
2016,10,16,18,14,11.10
2016,10,16,18,16,11.10
2016,10,16,18,17,11.10
2016,10,16,18,18,11.10
2016,10,16,18,19,11.10
2016,10,16,18,21,11.10
2016,10,16,18,22,11.10
2016,10,16,18,23,11.10
2016,10,16,18,24,11.10
2016,10,16,18,26,11.10
2016,10,16,18,27,11.10
2016,10,16,18,28,11.10
2016,10,16,18,29,11.10
2016,10,16,18,31,11.10
2016,10,16,18,32,11.10
2016,10,16,18,33,11.10
2016,10,16,18,34,11.10
2016,10,16,18,36,11.20
2016,10,16,18,37,11.20
2016,10,16,18,38,11.20
2016,10,16,18,39,11.20
2016,10,16,18,41,11.20
2016,10,16,18,42,11.20
2016,10,16,18,43,11.20
2016,10,16,18,44,11.20
2016,10,16,18,45,11.20
2016,10,16,18,46,11.20
2016,10,16,18,47,11.20
2016,10,16,18,48,11.20
2016,10,16,18,49,11.20
2016,10,16,18,50,11.20
2016,10,16,18,51,11.20
2016,10,16,18,52,11.20
2016,10,16,18,53,11.20
2016,10,16,18,54,11.30
2016,10,16,18,55,11.30
2016,10,16,18,56,11.30
2016,10,16,18,58,11.30
2016,10,16,18,59,11.30
2016,10,16,19,00,11.30
2016,10,16,19,01,11.30
2016,10,16,19,02,11.30
2016,10,16,19,03,11.30
2016,10,16,19,04,11.30
2016,10,16,19,06,11.30
2016,10,16,19,07,11.30
2016,10,16,19,08,11.30
2016,10,16,19,09,11.30
2016,10,16,19,10,11.30
2016,10,16,19,11,11.30
2016,10,16,19,12,11.30
2016,10,16,19,13,11.30
2016,10,16,19,14,11.30
2016,10,16,19,15,11.40
2016,10,16,19,16,11.40
2016,10,16,19,17,11.40
2016,10,16,19,18,11.40
2016,10,16,19,19,11.40
2016,10,16,19,20,11.40
2016,10,16,19,21,11.40
2016,10,16,19,22,11.40
2016,10,16,19,23,11.40
2016,10,16,19,24,11.40
2016,10,16,19,25,11.40
2016,10,16,19,26,11.40
2016,10,16,19,27,11.40
2016,10,16,19,28,11.40
2016,10,16,19,29,11.40
2016,10,16,19,30,11.40
2016,10,16,19,31,11.60
2016,10,16,19,32,11.60
2016,10,16,19,33,11.60
2016,10,16,19,34,11.60
2016,10,16,19,35,11.60
2016,10,16,19,36,11.60
2016,10,16,19,37,11.60
2016,10,16,19,38,11.60
2016,10,16,19,39,11.60
2016,10,16,19,40,11.60
2016,10,16,19,41,11.60
2016,10,16,19,42,11.60
2016,10,16,19,43,11.60
2016,10,16,19,44,11.60
2016,10,16,19,45,11.60
2016,10,16,19,46,11.60
2016,10,16,19,47,11.60
2016,10,16,19,48,11.60
2016,10,16,19,49,11.60
2016,10,16,19,50,11.60
2016,10,16,19,51,11.60
2016,10,16,19,52,11.60
2016,10,16,19,53,11.60
2016,10,16,19,54,11.60
2016,10,16,19,55,11.60
2016,10,16,19,56,11.60
2016,10,16,19,57,11.60
2016,10,16,19,58,11.60
2016,10,16,19,59,11.60
2016,10,16,20,00,11.60
2016,10,16,20,02,11.60
2016,10,16,20,03,11.60
2016,10,16,20,04,11.60
2016,10,16,20,06,11.60
2016,10,16,20,07,11.60
2016,10,16,20,08,11.60
2016,10,16,20,09,11.60
2016,10,16,20,11,11.60
2016,10,16,20,12,11.60
2016,10,16,20,13,11.60
2016,10,16,20,14,11.60
2016,10,16,20,16,11.60
2016,10,16,20,17,11.60
2016,10,16,20,18,11.60
2016,10,16,20,19,11.60
2016,10,16,20,21,11.60
2016,10,16,20,22,11.60
2016,10,16,20,23,11.60
2016,10,16,20,24,11.60
2016,10,16,20,26,11.60
2016,10,16,20,27,11.60
2016,10,16,20,28,11.60
2016,10,16,20,29,11.60
2016,10,16,20,31,11.60
2016,10,16,20,32,11.60
2016,10,16,20,33,11.60
2016,10,16,20,34,11.60
2016,10,16,20,36,11.40
2016,10,16,20,37,11.40
2016,10,16,20,38,11.40
2016,10,16,20,39,11.40
2016,10,16,20,41,11.40
2016,10,16,20,42,11.40
2016,10,16,20,43,11.40
2016,10,16,20,44,11.40
2016,10,16,20,46,11.40
2016,10,16,20,47,11.40